LFBPLFBZ

Guest
Details From LFBP - Pau Pyrenees
To LFBZ - Biarritz-Anglet-Bayonne
Flight Number -
Tags generated
Created
Modified
Stats Distance 48 nm / 90 km
Max Altitude 100 ft / 30 m
Waypoints 3
Social Downloads 4
Likes 0
Share VATSIM

Download

Looking for another format? Having issues loading an existing format? Contact us
Advertisement - Login to hide

Notes

Basic altitude profile: - Ascent Rate: 2500ft/min - Ascent Speed: 250kts - Cruise Altitude: 5000ft - Cruise Speed: 420kts - Descent Rate: 1500ft/min - Descent Speed: 250kts

Route

LFBP BTZ LFBZ

ID Type Via Altitude Latitude Longitude Leg Dist Tot Dist Heading (true) Name
O LFBP APT - 0 ft / 0 m 43.38108˚ -0.42075˚ - 0 nm - Pau Pyrenees
BTZ VOR - 100 ft / 30 m 43.46664˚ -1.51028˚ 47 nm 47 nm 277° / 276° BIARRITZ BAYONNE ANGLET VOR-DM
O LFBZ APT - 0 ft / 0 m 43.46843˚ -1.52332˚ 0 nm 48 nm 281° / 281° Biarritz-Anglet-Bayonne

Altitude Profile

Advertisement - Login to hide

LFBP

Details ICAO LFBP (PUF)
Name Pau Pyrenees
Region France
Timezone Europe/Paris (UTC+2.0)
Stats Elevation 616 ft / 188 m (AMSL)
Location 43.381078° -0.420752°
Runways 1
Magnetic Variation 0.158° E

METAR

LFBP 240830Z AUTO VRB01KT CAVOK 22/15 Q1019 NOSIG

Decode

TAF

TAF LFBP 240500Z 2406/2506 VRB03KT CAVOK

Decode

Departure Runways

ID Width Length Bearing (true) Bearing (mag) Surface Threshold Offset Overrun Length
13 148 ft / 45 m 8,191 ft / 2,497 m 125.89° 125.73° Asphalt 0 ft / 0 m 0 ft / 0 m
31 148 ft / 45 m 8,191 ft / 2,497 m 305.90° 305.74° Asphalt 0 ft / 0 m 0 ft / 0 m

LFBZ

Details ICAO LFBZ (BIQ)
Name Biarritz-Anglet-Bayonne
Region France
Timezone Europe/Paris (UTC+2.0)
Stats Elevation 245 ft / 75 m (AMSL)
Location 43.468427° -1.523322°
Runways 1
Magnetic Variation 0.161° W

METAR

LFBZ 240830Z AUTO 00000KT CAVOK 23/15 Q1019 NOSIG

Decode

TAF

TAF LFBZ 240500Z 2406/2506 VRB03KT CAVOK TEMPO 2411/2416 35010KT

Decode

Destination Runways

ID Width Length Bearing (true) Bearing (mag) Surface Threshold Offset Overrun Length
09 148 ft / 45 m 7,388 ft / 2,252 m 89.12° 89.28° Asphalt 673 ft / 205 m 0 ft / 0 m
27 148 ft / 45 m 7,388 ft / 2,252 m 269.14° 269.30° Asphalt 0 ft / 0 m 0 ft / 0 m

Approach Navaids

Runway Type Ident Frequency Range Bearing (true) Bearing (mag) Slope Elevation
09 Localiser BZ 111.34 MHz 18 nm / 33 km 89.35° 89.51° - 243 ft / 74 m (AMSL)
09 Glidescope BZ 111.34 MHz 10 nm / 19 km 89.13° 89.29° 3.00° 243 ft / 74 m (AMSL)
27 Localiser BZ 111.35 MHz 18 nm / 33 km 269.04° 269.20° - 234 ft / 71 m (AMSL)
27 Glidescope BZ 111.35 MHz 10 nm / 19 km 269.13° 269.29° 3.00° 234 ft / 71 m (AMSL)
27 DME BZ 111.35 MHz 18 nm / 33 km - - - 223 ft / 68 m (AMSL)

Popular Alternatives